DRAGON CRS-8

Last updated on Wed May 11 2016 15:36:22 GMT+0000 (Coordinated Universal Time)

1 41452U 16024A 16131.55530197 .00009320 00000-0 14570-3 0 9990 2 41452 51.6445 245.7589 0001960 108.6107 0.6695 15.54537847 4933
UTC large
Height (km)
Speed (km/s)
/
Latitude / Longitude
Inclination (degrees)
Orbital Period (minutes)
Azimuth
Elevation
Range (km)
Doppler Factor

Next 0 passes for location: London (51.5072 / 0.1276)

Sorry there are no passes over London.